Flag for Azerbaijan Weather past 2 weeks in Xankendi, Nagorno-Karabakh, Azerbaijan

39 °F

Passing clouds.

Feels Like: 39 °F
Forecast: 35 / 54 °F
Wind: No wind

Location: Gyanca Airport

Current Time: Dec 1, 2015 at 6:58:48 AM

Latest Report: Dec 1, 2015 at 6:30 AM

Visibility: N/A

Pressure: 29.95 "Hg (27.16 "Hg at 792m altitude)

Humidity: 93%

Dew point: 37 °F

Location of XankendiLocation

Historic Weather in Xankendi — Graph


Xankendi temperature yesterday

Maximum temperature yesterday: 64 °F (at 3:00 PM)
Minimum temperature yesterday: 45 °F (at 11:30 PM)
Average temperature yesterday: 53 °F

Past Weeks' High & Low Weather Summary

High70 °F (Nov 27, 2:30 PM)100% (Nov 17, 12:30 AM)30.33 "Hg (Nov 17, 12:30 AM)
Low34 °F (Nov 20, 8:00 AM)7% (Nov 26, 11:30 AM)29.80 "Hg (Nov 17, 8:00 AM)
Average48 °F63%30.09 "Hg
* Reported Nov 16 6:00 AM — Dec 1 6:00 AM, Xankendi, Weather by CustomWeather, © 2015

Note: Actual official high and low records may vary slightly from our data, if they occured in-between our weather recording intervals... More about our weather records


Xankendi weather history for previous 24 hours

Time TempWeatherWind HumidityBarometerVisibility
6:00 AM
Tue, Dec 1
39 °FPassing clouds.No wind100%29.95 "HgN/A
5:00 AM39 °FPassing clouds.No wind87%29.95 "HgN/A
4:00 AM39 °FPassing clouds.No wind81%29.98 "HgN/A
3:00 AM41 °FPassing clouds.3 mph76%29.98 "HgN/A
2:30 AM39 °FPassing clouds.No wind81%29.98 "HgN/A
2:00 AM41 °FPassing clouds.2 mph76%30.01 "HgN/A
1:30 AM39 °FPassing clouds.No wind81%30.01 "HgN/A
1:00 AM43 °FPassing clouds.No wind81%30.01 "HgN/A
12:30 AM39 °FPassing clouds.No wind81%30.01 "HgN/A
12:00 AM43 °FPassing clouds.No wind76%30.01 "HgN/A
11:30 PM
Mon, Nov 30
45 °FPassing clouds.6 mph87%30.01 "HgN/A
11:00 PM46 °FPassing clouds.7 mph82%30.01 "HgN/A
10:30 PM46 °FPassing clouds.8 mph82%30.01 "HgN/A
10:00 PM46 °FPassing clouds.7 mph66%30.01 "HgN/A
9:30 PM48 °FCool.N/A62%30.01 "HgN/A
9:00 PM48 °FPassing clouds.3 mph62%30.01 "HgN/A
8:30 PM52 °FPassing clouds.5 mph54%30.01 "HgN/A
8:00 PM52 °FPassing clouds.9 mph54%30.01 "HgN/A
7:30 PM54 °FPassing clouds.9 mph51%30.01 "HgN/A
7:00 PM52 °FPassing clouds.9 mph58%30.01 "HgN/A
6:30 PM54 °FPassing clouds.9 mph54%30.01 "HgN/A
6:00 PM54 °FPassing clouds.9 mph58%30.01 "HgN/A
5:30 PM55 °FPassing clouds.5 mph55%30.01 "HgN/A
5:00 PM59 °FPassing clouds.3 mph45%30.01 "HgN/A
4:30 PM63 °FPassing clouds.2 mph37%30.01 "HgN/A
4:00 PM64 °FPassing clouds.2 mph32%30.01 "HgN/A
3:30 PM64 °FPassing clouds.2 mph32%30.01 "HgN/A
3:00 PM64 °FPassing clouds.2 mph34%30.01 "HgN/A
2:30 PM63 °FPassing clouds.2 mph37%30.01 "HgN/A
2:00 PM63 °FPassing clouds.2 mph39%30.04 "HgN/A
1:30 PM63 °FPassing clouds.5 mph39%30.04 "HgN/A
1:00 PM61 °FPassing clouds.6 mph45%30.04 "HgN/A
12:30 PM61 °FPassing clouds.7 mph45%30.07 "HgN/A
11:00 AM57 °FPassing clouds.15 mph55%30.07 "HgN/A
10:30 AM55 °FPassing clouds.14 mph59%30.07 "HgN/A
10:00 AM55 °FPassing clouds.9 mph59%30.07 "HgN/A
9:30 AM54 °FPassing clouds.5 mph63%30.07 "HgN/A
9:00 AM50 °FThunderstorms. Cloudy.N/A71%30.07 "HgN/A
8:30 AM50 °FPassing clouds.5 mph67%30.04 "HgN/A
8:00 AM50 °FPassing clouds.10 mph67%30.04 "HgN/A
7:00 AM50 °FPassing clouds.9 mph71%30.01 "HgN/A
6:30 AM50 °FPassing clouds.9 mph71%30.01 "HgN/A
6:00 AM50 °FPassing clouds.12 mph71%30.01 "HgN/A
Weather by CustomWeather, © 2015

See weather overviewHow to use our weather pages